Location: ??????
(42.0089°N, 44.3281°E)
Time: 12:57:36
(UTC+00:00)

NOSS 8 (H) - Pass Details

Date: 03 June 2022
Orbit: 366 x 1779 km, 63.3° (Epoch: 28 June)

Event Time Altitude Azimuth Distance (km) Brightness Sun altitude
Rises 17:32:15 0° 328° (NNW) 2,505 9.9 -9.6°
Reaches altitude 10° 17:34:07 10° 332° (NNW) 1,742 8.7 -9.9°
Maximum altitude 17:37:55 62° 54° (NE) 711 5.3 -10.4°
Enters shadow 17:42:19 15° 133° (SE) 2,059 7.0 -11.0°
